GFSNE_con_lsi_231.txt.gz
Lid_Strength_Index
2 2 3 1 2 3 3 5 7 9 7 7 5 4 3 2 1 1 1 -1 -1 -1 -0 1 2 2 3 3 3 3 3 3 3 2 2 1 1 0
1 1 1 1 1 1 2 4 4 4 5 4 4 3 4 3 2 2 2 -0 -1 -1 -1 1 1 2 3 3 3 3 4 3 3 3 3 3 2 2
2 2 2 2 3 3 4 4 5 5 6 7 6 6 6 4 3 3 2 2 2 -0 -0 -1 0 1 2 2 3 3 3 4 3 3 4 4 3 2
3 4 5 4 6 5 6 7 7 7 6 10 8 7 7 5 4 4 3 1 2 1 0 0 0 1 1 2 3 3 4 3 4 4 4 4 3 3
5 5 6 6 7 7 6 7 6 4 5 7 7 7 6 7 7 6 6 5 2 1 0 0 0 1 1 1 1 2 3 4 4 4 4 3 3 3
5 6 6 6 6 7 6 7 6 7 6 8 7 7 6 7 8 8 7 6 5 3 2 2 1 1 1 1 2 2 3 4 4 4 5 5 5 4
5 4 5 3 2 3 5 6 6 7 7 8 9 9 9 9 10 9 9 8 7 6 5 4 4 4 4 2 2 3 4 5 5 5 4 4 5 5
6 6 4 3 4 3 2 2 2 6 7 6 9 8 9 9 9 9 10 10 10 7 7 6 6 7 5 5 4 5 5 6 5 5 5 5 5 7
6 6 4 3 4 5 4 2 2 1 1 3 5 7 8 7 8 9 9 10 9 6 5 7 7 8 6 5 5 6 6 5 5 5 5 6 6 8
5 5 6 6 5 5 5 4 3 3 3 3 4 4 5 6 7 6 6 8 7 6 6 8 7 8 7 7 4 4 4 5 5 5 5 5 6 7
5 5 5 5 4 4 5 5 5 5 1 1 2 3 4 4 4 6 7 8 10 8 6 7 8 9 8 5 4 4 4 5 5 5 5 5 6 6
5 4 3 4 4 5 6 6 6 6 5 5 5 5 4 4 2 5 5 6 6 7 6 8 9 10 11 7 6 5 5 5 5 5 5 6 6 6
4 4 4 3 4 4 5 6 5 5 5 6 6 6 5 5 5 4 4 6 7 6 6 7 10 9 9 9 8 7 7 7 7 6 6 7 7 6
5 4 5 4 4 4 5 5 4 4 6 6 7 7 7 7 6 5 4 5 5 6 5 7 9 9 10 10 9 7 7 7 7 7 7 7 7 7
5 4 4 4 4 4 4 4 4 6 6 7 7 7 7 6 6 6 5 5 5 4 5 6 6 8 8 9 9 8 8 8 7 8 9 9 9 8
4 5 3 3 3 4 4 4 5 5 6 7 7 6 6 7 8 7 8 8 6 6 5 5 6 7 8 8 8 9 8 9 9 9 9 9 9 9
6 5 5 5 6 6 6 6 6 5 6 6 6 7 5 5 6 6 6 6 7 7 7 7 6 6 7 8 9 9 9 9 9 9 9 10 10 9
5 6 7 6 6 6 6 6 6 5 6 6 5 5 6 6 6 6 6 6 7 7 7 7 7 8 8 7 7 10 9 9 9 9 9 10 11 9
6 6 6 6 6 6 6 6 7 7 6 7 6 6 6 7 7 7 6 6 7 7 7 7 8 9 10 11 9 7 11 9 9 10 9 10 11 10
6 6 6 6 5 6 5 6 7 7 7 6 6 6 7 7 7 7 7 7 7 7 7 7 8 9 10 11 12 10 9 9 9 10 10 10 10 9
5 6 6 6 5 5 6 6 7 8 8 7 6 6 6 7 7 7 7 7 7 7 8 9 8 10 8 8 10 11 9 8 7 9 10 11 11 11
5 6 6 6 6 6 6 6 7 8 8 7 7 6 7 6 6 7 6 6 7 7 7 7 7 7 8 10 11 11 10 9 7 8 8 9 10 13
5 6 6 6 6 6 6 7 8 8 8 7 7 7 7 7 7 7 6 7 7 7 7 8 8 8 9 10 10 10 10 9 9 10 10 9 8 8

GFSNE_con_lsi_237.txt.gz
Lid_Strength_Index
4 4 3 3 3 2 2 3 5 7 6 5 5 4 6 6 5 4 5 2 1 1 0 0 -0 0 1 1 1 2 2 1 1 1 1 1 -0 -0
6 6 5 5 5 6 5 5 5 6 8 6 6 7 7 6 5 4 4 2 2 2 1 1 1 1 1 1 2 1 1 2 2 1 2 1 1 1
8 8 8 8 8 8 8 8 8 8 9 8 8 6 7 7 6 6 5 6 5 3 2 1 1 1 1 1 1 1 1 1 1 1 2 2 2 2
8 7 7 6 8 8 8 9 9 8 7 9 8 7 7 6 6 7 6 5 6 4 2 2 1 2 2 2 2 2 2 1 1 2 2 2 3 3
7 7 6 6 7 7 7 7 7 6 7 7 8 7 6 6 7 7 7 7 5 3 3 3 2 2 2 2 3 3 2 2 2 2 2 3 3 4
7 6 5 5 6 6 6 7 7 7 7 8 6 5 7 7 7 8 7 8 8 6 4 4 3 3 3 3 3 3 2 3 3 3 3 4 4 5
7 6 5 3 2 2 4 5 6 7 7 7 7 5 7 8 8 8 9 9 9 9 8 6 6 7 7 5 4 3 3 3 3 4 4 5 5 5
7 6 6 4 4 2 2 1 2 5 6 7 7 8 7 7 8 8 8 7 8 8 8 8 6 7 7 8 5 5 5 5 5 5 5 5 5 6
6 6 5 5 4 5 4 3 3 2 2 5 7 7 7 7 7 8 8 8 7 7 8 7 6 8 8 7 6 5 5 6 6 6 6 6 6 6
6 6 6 6 6 4 6 6 6 6 5 4 6 6 6 6 7 5 6 5 7 7 6 7 7 9 9 9 5 4 4 4 4 4 4 5 5 6
6 6 5 6 4 4 5 7 7 6 4 2 3 3 4 4 3 6 8 7 7 9 6 6 7 9 10 8 5 4 4 4 5 5 5 6 6 6
7 6 3 4 4 4 6 7 7 7 7 6 6 6 5 5 4 7 5 7 7 8 5 9 9 9 9 7 7 6 7 7 7 7 7 6 6 6
7 7 6 4 4 4 4 7 7 6 5 7 7 7 7 7 7 7 6 5 7 8 5 7 7 9 8 9 8 7 7 7 7 6 6 7 7 7
7 7 6 5 5 5 5 5 4 4 6 7 8 8 8 6 6 5 6 5 6 6 5 6 7 8 9 10 10 8 7 7 7 8 8 8 8 8
6 4 4 5 5 5 4 4 4 6 7 8 9 9 6 5 5 5 5 5 5 5 4 6 7 7 8 10 10 8 8 7 8 9 9 9 9 9
5 6 5 5 5 5 6 6 7 7 7 8 6 6 5 5 6 5 6 6 7 6 5 5 6 7 8 8 8 9 8 10 9 9 9 9 9 9
6 7 8 8 7 7 7 7 8 8 9 9 7 6 6 6 6 6 6 6 7 8 8 7 6 6 7 8 9 9 10 10 9 9 9 10 10 9
7 8 8 8 8 8 8 8 9 8 8 8 7 7 6 7 7 6 6 7 7 7 7 7 7 8 8 8 7 10 10 10 9 8 9 10 11 9
8 8 8 8 8 8 8 9 10 9 8 7 7 7 6 7 7 7 7 7 7 7 8 8 8 9 10 11 9 8 11 9 9 10 10 10 11 9
8 8 8 8 8 8 9 10 10 10 8 8 7 7 7 7 8 8 7 7 7 7 8 8 8 9 11 11 12 10 8 9 10 10 10 9 9 8
8 8 8 8 8 8 9 10 10 10 9 8 7 7 7 7 7 7 7 8 8 7 9 9 8 10 8 8 11 11 10 8 8 9 9 10 10 10
7 8 8 8 8 9 10 10 10 10 9 9 8 8 7 7 7 7 7 7 7 7 8 7 7 7 9 10 11 11 10 9 8 8 8 9 11 12
7 7 8 8 8 9 10 10 10 10 9 9 9 9 8 7 7 7 7 7 7 7 8 8 8 8 9 9 10 10 10 10 10 10 10 8 8 8

GFSNE_con_lsi_240.txt.gz
Lid_Strength_Index
6 5 5 5 5 5 4 4 5 6 5 4 4 3 3 3 3 2 3 2 2 2 1 1 1 0 0 0 0 1 2 2 2 2 2 2 1 1
6 6 6 6 6 6 5 5 5 5 6 5 4 4 3 3 3 3 4 3 3 3 2 2 1 1 1 1 1 1 2 2 2 2 2 2 2 2
6 6 6 6 6 5 5 4 4 4 5 4 4 3 3 3 2 3 3 3 3 3 2 1 1 1 0 1 1 2 2 2 2 2 2 2 2 2
6 5 5 5 5 4 4 4 4 4 4 5 4 3 3 2 2 3 3 3 3 3 1 1 1 1 1 1 1 2 2 2 2 2 3 3 2 1
6 5 4 4 4 4 4 4 4 3 4 4 4 3 3 2 3 3 3 2 3 2 2 2 2 1 1 2 2 2 3 3 3 3 3 3 2 2
6 5 4 3 3 3 2 2 3 3 3 3 3 3 3 3 3 4 4 3 4 3 2 2 2 2 3 3 3 3 3 4 4 4 3 3 3 3
5 5 4 2 1 1 1 1 2 2 3 3 3 3 3 3 4 3 5 4 3 3 3 3 4 3 4 4 4 4 4 4 4 4 4 4 4 4
5 4 4 2 3 2 2 1 1 1 2 3 3 4 3 3 3 4 5 5 6 3 4 4 4 4 4 4 5 5 5 5 6 6 5 5 5 5
5 5 4 3 3 3 3 2 3 2 1 1 3 3 3 3 3 4 4 4 5 3 4 5 4 5 4 5 6 5 5 5 5 5 5 5 6 6
5 5 4 4 3 3 3 3 3 3 2 2 2 2 2 3 3 3 4 4 3 3 4 6 4 5 4 5 5 4 4 4 4 4 5 5 5 6
5 4 3 4 4 4 3 3 3 3 3 2 3 3 4 4 3 4 5 6 6 5 4 5 5 6 5 6 5 5 5 5 6 7 7 7 6 6
4 4 4 4 4 4 3 4 4 3 3 2 2 3 3 3 4 4 5 7 7 6 4 6 6 6 8 5 6 6 6 6 6 6 7 6 5 6
5 5 4 4 5 5 4 3 4 3 3 3 3 3 4 4 4 4 5 6 6 6 4 5 6 6 8 8 7 6 7 7 7 6 6 7 7 7
5 5 4 5 5 5 4 5 5 4 4 4 4 5 5 5 5 4 4 5 5 6 4 5 6 6 8 9 9 7 7 6 6 7 8 8 8 8
4 4 5 5 5 4 4 5 5 5 5 6 6 6 6 5 4 4 4 4 4 4 4 4 6 6 7 9 9 8 8 7 8 8 8 8 9 8
4 4 4 5 5 5 5 5 5 6 6 7 7 6 5 5 6 5 6 6 6 6 5 4 5 6 7 7 7 9 8 10 8 8 8 8 8 8
5 4 5 5 5 5 5 5 6 7 7 7 7 7 6 6 6 5 6 6 7 7 7 6 5 6 6 7 8 9 10 9 8 8 9 9 9 8
5 5 5 6 6 6 7 7 7 8 8 8 7 7 7 7 7 6 6 7 8 7 7 7 7 7 7 7 7 10 9 9 9 8 8 10 10 9
5 5 5 6 6 7 7 7 8 8 8 8 8 7 7 7 8 7 7 7 7 7 8 7 8 9 10 11 9 8 10 10 9 9 9 9 10 10
5 5 5 6 6 7 7 8 8 8 9 9 8 8 7 7 8 8 7 7 7 7 8 7 8 8 10 12 12 9 9 9 9 9 9 8 8 8
5 5 5 5 6 7 7 8 8 9 9 9 9 8 8 7 7 7 7 8 8 8 8 8 7 10 8 8 10 10 9 8 7 8 9 9 10 9
5 5 5 5 7 7 8 8 8 9 9 9 9 9 8 7 7 6 7 7 7 7 7 7 7 8 8 9 10 10 10 9 7 8 8 8 10 11
5 5 5 5 7 7 8 8 9 9 9 9 8 8 7 7 6 6 6 6 7 7 7 8 8 8 8 8 10 10 10 9 8 8 8 8 7 8

GFSNE_con_lsi_246.txt.gz
Lid_Strength_Index
2 2 3 3 3 3 3 3 4 6 5 3 2 -0 -1 -1 -0 -1 -0 0 1 1 2 2 1 1 1 1 0 -0 -1 -1 -0 0 1 1 1 1
3 3 3 3 3 4 4 3 3 4 5 2 1 -0 -1 -1 -1 -2 -2 -1 -2 0 1 0 -0 0 0 1 1 1 0 -0 1 1 1 1 1 2
3 3 3 3 4 4 3 3 3 2 3 2 1 -1 -1 -1 -1 -2 -2 -1 -1 -1 1 0 -0 0 0 -0 -0 0 1 0 1 1 1 1 1 1
4 4 4 4 3 2 3 2 2 1 1 2 0 0 -0 -1 -1 -1 -1 -1 -1 -2 -1 -0 -0 -0 -0 -0 -0 -0 -0 0 1 1 1 1 1 1
3 3 3 3 3 3 2 1 1 1 1 1 2 0 0 -0 -0 -1 -1 -1 0 -1 -1 -1 -1 -0 0 0 0 0 1 2 2 2 2 1 1 1
3 2 3 2 2 2 1 1 0 0 1 2 2 2 1 -0 0 1 1 0 1 1 -0 -0 -1 -1 -0 1 1 1 1 2 2 2 2 2 2 2
2 2 2 2 2 1 1 0 -0 1 1 2 2 2 2 1 2 1 2 1 1 0 0 0 0 0 -2 0 1 3 3 3 2 3 3 3 3 4
3 2 2 1 1 1 0 0 -0 0 1 1 2 2 1 1 1 2 2 2 3 1 1 2 1 1 -1 -1 2 2 2 3 3 4 4 4 5 5
2 2 2 2 1 2 1 0 -0 -0 -0 -0 1 1 1 1 0 1 2 2 3 2 2 3 1 1 0 1 2 3 3 3 3 4 5 5 6 6
2 2 2 2 2 3 2 0 -0 -1 -1 -0 -1 -0 -1 -1 -0 0 1 1 1 2 2 4 2 2 1 0 3 4 4 4 5 5 6 6 6 6
2 1 2 2 4 4 2 1 0 0 -0 0 1 2 2 2 2 1 3 4 4 4 3 4 2 3 2 3 2 3 4 5 6 5 5 5 6 6
2 1 4 3 5 5 2 1 2 2 2 2 1 1 2 1 2 2 2 5 5 6 2 5 4 3 6 2 2 2 2 5 5 5 6 6 7 6
3 2 1 5 5 5 5 2 3 4 3 2 3 2 2 3 3 2 2 3 5 6 3 4 4 4 5 5 3 3 3 4 4 5 7 7 6 6
2 2 1 5 5 5 4 6 6 5 2 3 4 4 4 4 3 3 3 3 1 3 2 3 5 4 6 7 7 5 5 6 5 6 5 6 7 7
1 2 4 4 5 4 4 5 5 3 4 5 5 5 5 5 4 4 3 3 3 3 2 2 3 4 5 7 7 7 8 7 4 7 7 7 6 7
1 1 1 3 4 3 2 2 3 3 4 6 6 6 6 5 5 5 5 4 4 4 3 3 3 3 5 5 6 7 8 8 7 7 7 7 7 6
4 1 1 1 2 3 2 2 3 3 6 6 7 7 7 6 6 5 5 6 6 6 5 5 3 3 3 5 8 8 8 8 7 7 7 8 7 6
2 1 2 2 3 4 4 4 4 6 6 7 7 7 7 7 6 6 6 6 6 6 6 5 6 6 6 6 6 8 7 8 8 7 7 9 9 7
2 1 1 2 3 4 4 4 4 6 6 7 8 7 7 7 7 7 7 6 6 6 6 6 6 8 10 10 7 7 8 8 8 8 7 8 9 7
1 2 2 2 3 4 4 5 5 6 7 7 7 7 7 7 7 6 6 7 6 6 7 6 7 8 9 10 10 7 8 7 8 8 7 7 7 8
2 2 2 2 3 4 4 4 6 6 7 7 7 7 6 6 6 6 6 8 7 7 7 7 7 10 6 6 9 8 6 7 7 8 8 8 8 8
1 2 2 3 3 3 4 5 6 7 7 7 7 6 5 5 6 6 6 7 7 6 7 6 5 5 6 8 8 7 6 6 7 7 7 8 9 10
1 1 2 3 3 4 4 5 7 7 7 7 7 7 6 5 5 5 6 6 6 6 6 6 6 6 8 8 8 7 8 7 7 9 8 8 8 8